CAPE
1252 1156 1003 1730 516 211 114 210 289 0 0 0 0 8 173 371 10 45 139 171 271 685 1087 1251 1851 1902 1343 1653 1567 1269 1099 791 1109 858 905 917 899 941 954 1119 1236 1287 1361 1415 1227 993 1186 1332 1089
1232 956 2024 2137 202 119 261 376 340 14 0 0 26 221 403 610 403 155 187 146 237 739 919 1168 1872 2129 1373 1428 1639 1491 967 845 1092 1177 1430 1541 1319 1130 1344 1137 1302 861 868 1053 1461 1199 996 1074 1173
1343 2058 2433 680 67 118 433 203 0 0 0 0 156 367 387 328 153 85 312 392 355 891 1113 1359 2286 2165 1451 1331 1259 1220 1095 1080 1097 1081 1028 858 1080 1275 485 709 1527 1540 1052 1325 1419 1420 1051 882 935
1385 2044 43 161 163 72 271 51 0 0 0 5 29 226 522 564 200 622 605 695 442 1006 1142 1832 1967 1331 1347 1401 1238 1083 1068 1144 1364 1008 1027 1333 1501 1440 1440 739 1564 1611 1335 1022 1224 1417 1469 1340 921
1279 534 264 159 145 157 115 347 0 0 6 26 18 192 499 792 899 499 700 818 747 842 1266 1434 2172 1798 1330 1325 1302 1251 1481 1396 1248 1380 1650 1506 1456 1293 1441 1451 1260 841 1205 1373 1035 1211 1497 1417 920
447 95 277 250 170 226 166 186 0 14 134 41 42 208 625 1017 845 439 551 632 520 624 1094 1075 1711 1688 1784 1507 1473 1922 1809 1269 1236 1143 1289 1466 1171 1243 1283 1245 1249 1184 694 902 1068 1242 1233 1428 1007
829 399 271 252 266 202 311 0 8 18 75 137 176 296 749 607 831 550 494 793 1080 606 794 902 1073 1743 2144 2081 2010 1947 1450 1427 1816 1620 1618 1579 1514 1478 1345 1360 1102 1032 1167 1268 1049 1137 880 1115 914
1056 459 299 227 315 265 198 3 6 16 73 202 243 542 723 808 864 706 633 1064 1098 880 638 1127 2076 1916 1980 2149 1591 1658 1569 1419 1476 1506 1663 1453 1234 880 1204 1049 1228 1241 921 929 1035 1050 861 970 922
607 578 489 274 323 331 243 92 0 39 97 46 109 498 696 787 873 742 656 1081 1449 1332 1241 1423 1704 1899 2016 1463 1096 1571 1953 1846 1524 1414 1582 1371 1106 789 1223 1071 1228 904 1068 1334 1347 1130 1126 1137 953
607 553 440 298 346 325 352 251 128 187 55 326 651 904 843 701 776 699 663 816 1028 1149 1273 1437 1656 2005 1569 1012 1269 1505 1460 1210 1769 1920 1870 1985 1526 1575 1277 1089 1151 999 1113 880 1000 1104 1265 1206 736
435 175 233 269 359 366 442 320 416 300 142 246 667 906 761 623 660 579 632 673 882 999 1191 1506 1706 1808 1258 1666 1379 1282 1480 1469 1541 2196 1995 1705 1889 1718 1215 1498 1251 1576 1277 1828 978 1014 1015 1412 1667
0 0 55 524 567 459 525 382 446 403 427 109 605 732 660 499 430 431 497 618 695 953 1010 1134 1255 1425 1728 2028 1578 1116 1251 1507 1329 1268 1529 1670 2271 1398 1255 820 900 1302 1288 1171 1518 1189 1082 1026 908
0 0 133 585 328 519 616 519 614 444 242 422 623 728 555 393 359 469 435 306 518 756 833 990 1168 1400 1875 2207 1433 1049 1096 1218 937 1019 779 1065 1201 1280 904 1093 1086 989 834 903 1051 1388 1263 1071 919
0 139 454 531 460 545 698 715 681 232 399 578 706 743 684 627 640 888 1022 737 256 305 485 1017 1328 1549 1744 1739 1640 1463 1105 854 1072 849 901 1311 1420 1573 1418 1033 1114 1286 1306 1201 1200 1282 1327 1413 1191
0 278 317 498 429 514 578 711 790 299 542 729 690 721 720 726 806 1002 1156 1079 403 178 141 606 1079 1222 1330 1176 1165 1046 1346 619 592 722 1029 1558 1905 1955 1712 1334 1405 1470 1415 1361 1404 1507 1337 1355 1053
69 100 264 296 366 59 298 704 379 245 700 705 704 679 793 842 793 911 1028 1172 699 286 465 560 330 377 826 867 966 761 1075 946 956 1032 1233 1347 1692 1989 1871 1310 1858 1466 1519 1165 1560 1199 859 796 717
6 214 132 64 297 228 216 419 515 93 473 753 753 737 774 879 893 872 910 1098 1025 568 861 742 600 320 521 626 459 574 1310 1323 1134 1285 1511 1763 1896 1889 1349 855 1008 1664 1418 1461 1028 1194 897 660 497
0 9 0 0 1 250 222 265 463 137 183 370 432 635 803 773 813 872 855 906 1071 775 1022 1067 577 726 922 591 613 811 1092 1235 1433 1679 1697 1724 1760 1408 1109 624 1417 1519 1330 1105 1256 1272 308 256 100
0 0 0 0 0 58 192 227 115 473 178 257 257 205 248 544 590 601 713 768 915 808 995 1245 1115 1227 992 896 890 955 1153 1389 1701 2003 2009 1776 1707 1547 1311 1475 1650 1375 762 1118 785 332 81 0 0
0 0 0 0 0 57 80 133 69 483 505 410 335 242 219 203 188 231 276 438 707 774 816 1028 1329 1568 1263 1098 1135 1120 1304 1382 1574 2026 1888 1681 1182 658 1232 1678 1279 620 302 169 3 0 0 0 0
0 0 0 0 0 2 79 138 168 206 476 592 530 408 363 318 253 246 195 173 327 576 662 889 1554 1850 1538 1463 1294 1347 1635 1795 1677 1851 1508 990 621 1340 1534 1753 798 385 71 3 23 0 0 0 0
0 0 0 0 0 0 0 1 144 20 337 417 524 565 506 495 371 360 251 282 291 418 591 774 1034 1380 1445 1484 1466 2008 1625 1596 1672 2050 2032 1621 1154 1631 2009 1095 623 348 11 124 22 0 0 0 0
0 0 0 0 0 0 0 0 0 0 4 52 441 522 592 554 545 461 307 361 393 389 481 710 1045 1209 1567 1431 2058 1845 1891 1526 1828 1890 1964 1891 2077 2183 1158 643 541 261 35 169 160 38 0 0 0
0 0 0 0 0 0 0 0 0 0 0 2 315 556 550 568 597 544 439 401 488 415 466 659 1064 1455 1545 1522 1621 2396 2345 1829 2023 2236 2210 2380 2259 1744 806 493 392 328 252 255 188 18 0 0 0
0 0 0 0 0 0 0 0 0 0 0 0 117 96 671 633 579 638 421 392 588 578 542 717 1238 1703 1513 1624 1715 1832 2077 2085 2289 2462 2372 2840 1761 1136 905 676 443 356 544 438 81 0 0 0 0
0 0 0 0 0 0 0 0 0 0 35 193 360 256 569 794 774 662 496 496 644 674 663 782 1072 1665 1487 1548 1796 1972 1934 1698 1836 2338 2442 2681 2363 1233 1045 769 654 612 667 448 0 0 0 0 0
0 0 0 0 0 0 0 0 0 12 383 405 431 447 674 824 944 875 562 447 522 667 833 883 1064 1355 1439 1479 1841 1781 1795 1854 1753 2189 1969 1698 1230 773 897 740 562 657 486 47 0 0 0 0 0
0 0 0 0 0 0 0 0 0 130 167 362 537 464 475 401 439 561 616 457 463 618 684 766 993 1245 1257 1318 1523 1498 1595 1893 2117 2147 1711 1505 388 671 637 461 598 665 104 0 0 0 0 0 0
0 0 0 0 0 0 0 0 0 1 10 45 265 437 427 395 414 515 554 605 547 652 730 743 869 1076 1140 1194 1354 1504 1656 1774 1963 1352 1361 796 686 425 245 262 267 178 3 0 0 0 0 0 0
0 0 0 0 0 0 0 0 0 17 0 28 162 54 47 127 238 539 234 385 590 778 956 1061 952 1000 1130 1389 1630 1752 1859 1662 1929 1393 1421 1342 837 786 406 338 83 2 0 0 0 0 0 0 0
CIN
-253 -252 -272 -155 -59 -32 -26 -19 -27 -0 -0 -0 -0 -21 -48 -73 -17 -38 -107 -84 -52 -5 -0 -0 -0 -0 -0 -0 -0 -0 -0 -0 -0 -0 -0 -0 -0 -0 -0 -0 -0 -1 -0 -0 -0 -0 -0 -0 -1
-284 -307 -139 -108 -34 -23 -9 -34 -23 -27 -0 -0 -58 -75 -68 -57 -98 -134 -96 -81 -71 -14 -0 -0 -0 -0 -0 -0 -0 -0 -0 -0 -0 -0 -0 -0 -0 -0 -0 -0 -1 -0 -1 -2 -0 -0 -0 -0 -0
-303 -163 -83 -113 -93 -39 -7 -48 -0 -0 -0 -0 -90 -88 -97 -111 -153 -152 -99 -61 -43 -5 -0 -0 -0 -0 -0 -0 -0 -0 -0 -1 -0 -0 -1 -0 -6 -0 -6 -4 -0 -0 -0 -0 -0 -0 -0 -0 -0
-297 -187 -430 -54 -39 -68 -25 -93 -0 -0 -0 -132 -143 -109 -104 -81 -126 -69 -63 -31 -41 -5 -2 -0 -0 -0 -0 -0 -0 -1 -5 -0 -0 -0 -0 -0 -0 -0 -0 -0 -0 -0 -0 -5 -0 -0 -0 -0 -2
-310 -288 -33 -50 -54 -48 -66 -42 -0 -0 -201 -57 -185 -143 -110 -27 -35 -103 -63 -33 -31 -22 -2 -0 -0 -0 -0 -0 -0 -1 -0 -0 -0 -0 -0 -0 -0 -0 -0 -0 -0 -4 -2 -0 -3 -0 -0 -0 -3
-134 -240 -27 -23 -40 -52 -77 -73 -0 -101 -116 -191 -190 -146 -65 -15 -44 -97 -81 -61 -58 -47 -9 -10 -0 -0 -0 -0 -0 -0 -0 -0 -0 -0 -0 -0 -2 -0 -0 -0 -0 -0 -6 -1 -0 -0 -2 -0 -2
-86 -58 -38 -49 -48 -51 -71 -0 -184 -153 -118 -117 -134 -133 -86 -104 -33 -77 -92 -47 -17 -57 -39 -29 -4 -0 -0 -0 -0 -0 -0 -0 -0 -0 -0 -0 -0 -0 -0 -0 -0 -0 -0 -0 -0 -0 -2 -2 -3
-137 -89 -35 -54 -42 -43 -106 -129 -218 -182 -130 -127 -116 -73 -96 -97 -65 -65 -68 -20 -23 -41 -61 -16 -0 -0 -0 -0 -0 -0 -0 -0 -0 -0 -1 -0 -0 -1 -0 -1 -0 -0 -0 -0 -0 -0 -0 -0 -1
-205 -39 -17 -30 -50 -54 -141 -134 -0 -186 -151 -173 -173 -120 -108 -118 -79 -75 -84 -20 -5 -14 -18 -3 -0 -0 -0 -1 -5 -0 -0 -0 -1 -0 -0 -0 -0 -0 -0 -6 -4 -1 -0 -0 -1 -0 -0 -0 -0
-103 -63 -41 -72 -58 -78 -119 -126 -143 -160 -189 -191 -169 -143 -140 -133 -97 -108 -119 -96 -58 -45 -34 -16 -1 -0 -1 -17 -4 -0 -0 -0 -0 -0 -0 -0 -0 -0 -0 -3 -7 -3 -1 -2 -1 -0 -0 -0 -0
-123 -58 -103 -64 -82 -91 -113 -139 -136 -157 -178 -174 -150 -164 -168 -154 -116 -110 -109 -112 -106 -84 -61 -40 -12 -0 -12 -2 -9 -5 -2 -0 -0 -0 -0 -0 -0 -2 -2 -3 -1 -5 -10 -5 -24 -0 -0 -0 -2
-0 -0 -174 -77 -123 -137 -131 -130 -131 -135 -126 -216 -189 -177 -180 -173 -158 -136 -117 -126 -123 -103 -91 -83 -65 -33 -8 -0 -8 -25 -19 -4 -2 -5 -3 -0 -1 -5 -13 -20 -21 -9 -7 -11 -6 -1 -1 -0 -21
-0 -0 -155 -78 -118 -127 -157 -140 -126 -158 -231 -246 -237 -188 -158 -137 -133 -132 -137 -160 -152 -127 -128 -110 -98 -70 -19 -2 -27 -45 -35 -26 -29 -27 -32 -26 -20 -19 -29 -23 -15 -24 -23 -13 -7 -2 -3 -4 -6
-0 -89 -94 -98 -87 -113 -109 -147 -145 -277 -293 -285 -255 -185 -122 -92 -91 -92 -92 -123 -199 -190 -158 -104 -75 -63 -49 -39 -43 -48 -60 -57 -46 -46 -41 -40 -27 -19 -20 -21 -11 -13 -13 -14 -12 -9 -5 -0 -2
-0 -61 -79 -90 -80 -101 -112 -134 -111 -280 -298 -251 -245 -194 -149 -99 -83 -81 -75 -86 -152 -190 -201 -139 -106 -79 -86 -110 -92 -79 -64 -67 -68 -68 -64 -43 -21 -14 -15 -16 -8 -6 -5 -9 -7 -5 -6 -2 -2
-149 -115 -34 -74 -86 -185 -119 -41 -159 -346 -254 -255 -241 -220 -187 -161 -97 -86 -68 -79 -107 -159 -174 -165 -160 -148 -133 -132 -117 -91 -72 -68 -68 -78 -67 -63 -36 -20 -11 -15 -11 -9 -5 -11 -8 -8 -9 -10 -6
-207 -25 -76 -104 -81 -88 -105 -59 -225 -374 -275 -257 -258 -239 -223 -196 -158 -108 -91 -83 -77 -142 -149 -161 -150 -137 -129 -155 -160 -118 -61 -61 -63 -69 -67 -65 -48 -37 -37 -30 -22 -6 -8 -6 -7 -3 -7 -4 -7
-7 -150 -0 -0 -59 -108 -94 -73 -260 -360 -308 -302 -302 -272 -243 -235 -185 -168 -131 -88 -81 -118 -132 -136 -141 -136 -139 -136 -146 -100 -74 -55 -51 -44 -66 -74 -61 -64 -51 -54 -18 -13 -10 -3 -0 -2 -12 -20 -53
-0 -0 -0 -0 -0 -147 -113 -100 -186 -285 -316 -309 -288 -354 -306 -236 -196 -183 -175 -108 -95 -126 -131 -133 -127 -121 -137 -127 -98 -75 -54 -42 -31 -37 -63 -65 -60 -58 -49 -19 -10 -13 -12 -10 -14 -12 -28 -0 -0
-0 -0 -0 -0 -0 -108 -135 -100 -163 -232 -281 -263 -282 -325 -336 -305 -271 -259 -251 -191 -124 -139 -155 -153 -143 -121 -132 -95 -86 -73 -58 -48 -35 -39 -58 -66 -84 -108 -53 -13 -13 -31 -25 -57 -11 -0 -0 -0 -0
-0 -0 -0 -0 -0 -40 -127 -79 -158 -234 -307 -320 -326 -293 -305 -277 -281 -233 -241 -241 -192 -169 -190 -179 -161 -135 -123 -106 -103 -81 -56 -52 -58 -47 -71 -111 -135 -65 -41 -11 -24 -56 -95 -18 -79 -0 -0 -0 -0
-0 -0 -0 -0 -0 -0 -0 -3 -44 -203 -213 -333 -310 -326 -281 -267 -252 -193 -189 -202 -201 -187 -179 -185 -185 -182 -146 -140 -89 -54 -34 -30 -37 -27 -47 -67 -96 -51 -12 -39 -50 -69 -143 -112 -110 -0 -0 -0 -0
-0 -0 -0 -0 -0 -0 -0 -0 -0 -7 -37 -46 -278 -311 -316 -287 -210 -194 -203 -169 -171 -191 -194 -187 -204 -203 -149 -161 -85 -71 -43 -31 -25 -40 -51 -56 -38 -19 -52 -61 -64 -105 -122 -92 -77 -109 -0 -0 -0
-0 -0 -0 -0 -0 -0 -0 -0 -0 -0 -0 -87 -292 -332 -314 -289 -255 -192 -174 -168 -203 -227 -244 -197 -228 -213 -192 -181 -138 -73 -51 -48 -32 -37 -34 -28 -23 -40 -76 -86 -82 -78 -66 -39 -39 -68 -0 -0 -0
-0 -0 -0 -0 -0 -0 -0 -0 -0 -0 -0 -0 -324 -352 -346 -288 -268 -220 -239 -221 -219 -243 -245 -247 -250 -207 -221 -193 -155 -120 -75 -53 -35 -38 -27 -32 -47 -75 -79 -92 -90 -49 -11 -18 -77 -6 -0 -0 -0
-0 -0 -0 -0 -0 -0 -0 -0 -0 -0 -148 -351 -408 -378 -362 -291 -253 -248 -270 -244 -240 -246 -274 -273 -302 -208 -232 -203 -169 -122 -82 -54 -45 -54 -60 -43 -41 -57 -90 -86 -71 -43 -10 -14 -0 -0 -0 -0 -0
-0 -0 -0 -0 -0 -0 -0 -0 -0 -76 -162 -231 -274 -328 -282 -249 -240 -232 -261 -261 -248 -274 -292 -316 -299 -267 -272 -213 -177 -160 -122 -92 -63 -55 -88 -62 -78 -109 -44 -107 -68 -26 -18 -76 -0 -0 -0 -0 -0
-0 -0 -0 -0 -0 -0 -0 -0 -0 -60 -89 -133 -190 -204 -231 -257 -270 -237 -290 -286 -277 -260 -287 -301 -297 -313 -284 -233 -211 -164 -139 -100 -89 -93 -100 -74 -179 -108 -52 -88 -109 -17 -66 -0 -0 -0 -0 -0 -0
-0 -0 -0 -0 -0 -0 -0 -0 -0 -20 -79 -270 -232 -256 -270 -237 -220 -269 -300 -323 -316 -313 -296 -306 -303 -327 -274 -260 -245 -171 -129 -114 -107 -174 -94 -150 -100 -128 -138 -99 -138 -161 -128 -0 -0 -0 -0 -0 -0
-0 -0 -0 -0 -0 -0 -0 -0 -0 -341 -10 -324 -251 -351 -406 -388 -283 -271 -349 -385 -375 -329 -313 -321 -316 -334 -310 -280 -268 -272 -175 -91 -72 -99 -109 -73 -84 -57 -89 -82 -199 -68 -0 -0 -0 -0 -0 -0 -0
Wind_Speed
13 8 3 2 1 2 4 5 2 10 5 2 10 2 4 6 2 7 10 10 17 14 13 13 12 14 15 14 15 15 15 14 12 11 10 9 8 9 8 7 6 7 8 9 8 6 7 7 7
10 8 2 1 2 5 5 3 8 7 8 13 11 6 5 5 4 11 11 16 17 14 13 14 12 13 14 14 13 12 13 12 10 8 8 7 9 8 7 5 5 6 7 8 9 8 8 8 8
11 2 2 3 3 5 4 5 12 10 6 4 5 8 3 4 8 16 11 18 16 14 13 15 14 13 14 14 12 13 11 11 9 7 7 6 7 6 7 5 6 6 8 7 8 7 9 8 7
4 3 2 6 8 5 4 7 10 7 9 7 7 8 6 2 12 6 19 17 16 14 13 15 15 14 12 12 12 12 10 8 9 6 5 4 5 7 6 6 6 7 7 8 6 7 8 8 7
2 1 4 4 5 3 4 7 6 3 6 6 4 7 10 4 7 18 17 15 15 14 12 14 13 12 12 12 10 10 9 8 8 7 5 5 5 7 5 6 5 6 6 5 5 4 6 8 7
1 1 3 5 4 3 4 7 4 7 9 12 13 12 5 5 14 16 15 15 14 14 12 13 12 12 13 12 10 9 9 7 6 6 5 4 4 4 4 4 4 5 5 4 4 4 4 5 5
2 2 3 2 2 0 4 7 6 7 10 8 11 7 5 8 13 14 13 13 12 12 11 10 12 12 11 10 9 9 8 7 6 6 4 4 3 3 3 2 2 2 2 3 3 3 2 1 3
1 1 1 2 2 1 8 5 9 9 6 12 6 6 8 12 16 14 12 12 12 11 11 10 8 8 8 9 9 7 7 7 6 4 3 3 3 3 2 1 1 1 1 1 2 2 3 3 4
1 0 1 1 2 1 11 6 5 5 13 3 3 6 13 19 16 15 13 11 10 9 10 9 10 9 7 6 6 7 6 6 8 6 5 4 2 2 2 1 2 4 4 4 4 3 3 4 6
2 1 3 1 4 3 11 8 10 5 12 5 11 15 20 18 17 17 17 14 14 13 12 10 9 9 8 5 6 6 4 4 3 2 2 1 2 1 5 5 5 6 7 6 6 5 6 7 4
2 2 2 3 5 8 11 8 5 12 8 8 16 21 20 18 16 15 15 15 15 13 11 12 11 9 9 7 5 4 4 3 3 4 4 3 2 2 3 3 3 3 5 3 4 4 4 5 3
3 5 4 3 8 8 9 7 6 8 1 10 20 21 20 19 19 17 15 13 13 13 13 13 13 10 10 6 6 5 4 4 4 4 5 3 2 2 3 3 4 4 4 5 5 5 6 7 4
3 4 1 5 10 10 10 5 1 7 7 18 18 19 19 18 16 14 12 12 12 14 14 14 13 11 9 9 6 6 5 5 5 4 5 4 4 3 3 3 4 4 4 4 6 4 5 6 6
5 2 5 5 9 8 8 4 4 5 14 18 21 19 17 17 17 14 14 14 14 14 14 13 13 12 11 10 9 6 5 5 4 4 5 6 4 3 4 4 4 4 4 4 4 4 4 5 5
2 5 7 5 4 3 7 4 7 12 16 18 20 18 16 16 15 17 16 15 15 13 13 14 13 13 12 12 9 7 5 5 5 5 6 6 6 5 4 4 4 3 3 5 4 4 4 4 3
1 3 2 1 4 4 5 5 3 16 18 17 18 17 17 17 19 17 15 15 13 13 14 13 11 12 12 10 8 6 5 4 5 5 6 7 6 5 4 4 3 2 3 3 2 2 2 3 3
3 6 2 2 4 2 7 5 5 16 16 16 16 18 18 18 18 18 18 16 15 15 14 14 14 13 13 10 7 7 6 5 5 5 5 5 5 5 3 3 2 3 2 2 1 1 3 3 4
4 4 1 3 1 5 6 10 6 15 17 17 17 17 17 18 22 20 20 17 16 15 14 13 12 13 11 7 6 5 5 5 4 3 4 5 4 4 2 2 3 2 2 2 2 3 2 3 4
5 2 3 4 6 4 5 9 8 14 16 17 18 18 19 20 21 18 18 17 15 14 15 14 14 13 10 8 7 7 7 5 4 3 4 5 4 4 3 2 2 1 1 3 2 2 3 3 4
5 2 4 6 3 4 4 9 8 18 23 22 21 20 21 19 17 17 17 16 18 17 16 15 15 14 12 8 7 5 5 4 3 2 3 4 4 3 3 2 1 1 3 3 3 2 1 2 5
4 5 1 6 9 3 5 7 4 7 13 17 19 19 21 21 21 19 18 19 17 17 18 17 16 15 13 12 6 4 3 2 3 4 4 4 3 2 4 4 3 3 2 2 3 3 2 1 3
9 4 4 4 4 5 6 6 8 2 9 13 19 23 22 22 19 19 19 18 19 20 16 16 15 15 14 13 10 10 8 7 5 5 5 4 5 5 5 5 5 4 3 4 4 4 4 2 1
5 3 1 1 4 4 1 5 9 4 13 8 15 19 22 22 22 21 20 20 19 16 17 17 15 14 13 13 12 11 10 6 4 5 7 5 5 6 6 6 6 6 3 4 4 4 4 4 3
9 5 6 3 3 5 1 6 11 6 7 6 2 9 17 20 21 20 18 16 15 14 14 14 15 14 14 14 15 14 12 9 6 6 7 7 6 6 7 7 5 4 4 4 4 5 6 5 4
5 6 5 7 6 6 3 5 11 12 8 12 13 8 11 16 18 19 19 18 16 17 16 14 15 15 15 16 15 15 13 11 9 8 6 7 6 7 9 9 7 5 4 4 4 5 5 5 4
9 8 4 6 5 6 3 6 9 2 10 8 7 8 7 14 15 17 18 17 17 17 17 17 17 14 15 14 14 11 11 7 6 6 5 4 4 7 11 9 9 7 6 5 5 4 4 5 5
6 5 3 5 1 4 1 6 12 3 7 5 2 2 4 8 10 12 14 16 16 16 18 19 17 15 14 14 11 11 10 10 7 6 5 2 4 5 7 11 9 8 7 6 6 4 5 4 4
3 10 5 1 3 4 4 5 6 6 9 6 3 3 2 2 5 8 10 13 15 17 17 16 16 17 15 13 11 10 10 9 9 7 8 7 5 9 9 8 13 8 7 7 5 5 5 5 4
6 4 5 4 2 3 3 3 1 10 11 12 7 4 2 3 5 6 8 12 15 14 14 14 13 15 13 12 10 9 9 11 11 7 7 8 10 9 10 9 9 12 10 8 6 5 5 5 6
2 3 7 4 5 0 3 6 4 6 8 7 10 8 3 5 6 5 7 8 11 13 14 14 14 14 14 14 14 13 12 10 9 8 11 11 12 11 11 11 10 9 9 8 8 6 6 6 7
Wind_Direction
141 139 143 224 85 60 53 53 62 118 136 72 146 181 113 40 47 89 137 142 137 138 132 136 134 127 125 124 121 126 127 128 124 120 116 126 128 117 115 112 108 129 113 104 104 104 112 128 127
145 146 202 285 54 64 58 37 90 69 94 121 98 104 61 82 70 121 135 149 143 137 137 138 137 135 136 127 131 133 133 130 120 127 121 126 128 120 111 106 113 116 110 101 108 110 107 122 124
159 229 308 64 43 52 66 65 116 111 85 115 108 55 56 64 121 139 136 148 145 142 141 137 141 138 142 139 140 140 137 129 132 127 120 133 121 114 107 116 112 113 104 98 116 111 117 115 111
170 180 161 51 50 59 66 122 136 122 86 67 103 75 85 114 139 152 146 150 148 147 146 136 142 147 146 143 153 142 135 143 133 134 149 145 114 125 110 119 98 104 112 114 100 118 118 112 108
154 221 44 43 36 41 101 133 154 89 91 73 97 93 105 115 123 143 148 155 151 150 151 146 150 155 157 162 154 146 150 154 147 155 159 131 131 116 135 110 109 99 86 107 117 114 112 119 119
225 247 21 22 22 29 85 141 120 102 103 115 102 106 109 121 142 150 152 155 154 156 156 151 155 165 172 164 161 152 151 156 160 168 176 139 132 125 130 127 126 125 120 107 100 99 102 126 128
6 19 33 20 14 87 130 146 123 112 127 108 129 104 108 152 150 153 155 154 155 159 159 160 166 175 162 174 158 168 159 169 179 176 173 145 139 161 148 137 129 108 110 131 139 123 138 136 174
45 304 68 13 347 21 140 132 127 122 93 126 127 163 168 167 157 151 156 159 160 164 164 169 174 171 178 164 173 165 175 179 185 178 153 174 194 205 173 179 194 247 277 225 223 189 176 196 239
174 307 270 263 203 121 154 131 144 104 136 94 27 141 135 148 155 154 157 165 171 176 176 179 176 180 177 177 176 188 202 199 187 187 201 209 253 257 273 358 273 288 279 266 255 245 249 234 244
238 224 221 232 176 183 168 149 140 131 150 76 88 109 130 150 164 166 172 177 186 183 184 184 187 179 182 188 195 191 196 209 211 187 211 206 240 301 304 305 307 281 281 274 276 273 263 254 279
179 271 184 237 205 148 164 144 135 137 191 178 158 146 151 161 175 179 185 187 188 186 186 190 189 189 195 200 195 197 197 206 200 220 223 244 280 298 292 306 297 307 311 298 324 279 259 259 256
291 276 225 167 145 133 160 143 156 170 136 169 160 156 157 169 180 186 190 189 190 193 196 193 192 191 201 200 202 205 206 207 214 214 229 233 250 269 285 292 308 301 314 304 272 264 277 275 319
247 311 331 136 120 115 132 168 153 190 119 137 150 158 169 179 180 185 192 193 195 201 200 202 195 193 198 209 211 218 216 211 216 223 223 221 238 248 258 278 293 297 300 290 285 280 284 279 267
316 301 75 98 132 136 145 156 177 148 138 141 156 169 173 185 188 187 197 196 199 204 206 203 207 198 196 210 216 212 217 219 226 227 234 227 241 247 262 278 289 276 285 272 278 281 281 285 281
7 98 80 86 112 103 135 175 229 144 154 153 163 174 181 195 195 204 201 204 197 204 205 209 209 205 208 207 215 220 216 217 234 238 241 238 233 238 252 265 281 272 273 260 263 257 240 264 268
120 52 74 186 132 138 192 268 203 162 164 166 173 180 186 194 207 212 215 210 201 205 204 208 207 206 211 216 212 221 225 221 231 246 252 247 242 242 238 271 281 315 259 250 250 329 301 304 287
39 122 71 331 204 157 218 269 170 175 176 175 184 186 193 197 207 218 220 217 207 207 204 204 203 208 211 211 217 225 236 232 244 243 249 244 222 201 226 281 286 288 243 275 269 326 332 325 322
121 130 249 307 45 197 235 261 175 188 190 187 188 195 199 202 209 207 217 218 211 210 210 208 201 209 204 199 204 220 236 236 232 231 214 198 187 168 253 262 275 296 277 304 304 325 0 351 336
120 128 283 264 294 266 250 262 206 194 210 204 198 200 203 212 210 208 211 216 213 209 207 207 202 203 195 193 199 216 221 203 221 236 210 190 177 178 208 228 271 300 353 40 9 328 9 26 360
151 182 259 287 135 281 305 272 264 192 209 213 207 203 208 212 212 212 212 211 211 209 209 204 209 202 201 204 203 211 200 212 213 207 199 184 192 213 194 215 219 127 99 61 34 352 285 41 22
182 242 166 301 331 117 285 276 228 199 216 223 225 222 213 210 207 207 208 210 211 211 207 205 203 200 202 202 185 166 153 142 177 178 182 189 208 193 193 188 185 137 125 99 68 50 29 344 68
229 205 228 271 311 305 345 307 298 218 226 215 215 218 218 215 213 212 207 206 208 215 207 208 203 201 198 191 195 198 214 222 212 191 186 174 200 186 177 162 168 157 137 118 105 82 55 356 352
238 122 49 305 259 281 149 259 284 313 302 283 221 220 219 218 214 210 206 208 209 207 205 206 197 197 193 192 201 196 208 214 188 172 159 166 160 162 156 158 156 144 147 117 109 100 69 69 32
140 101 61 75 197 229 47 257 289 279 279 299 19 241 219 215 216 215 215 210 209 204 203 198 193 193 190 190 195 198 196 194 186 179 172 167 162 158 162 153 147 142 130 120 95 80 66 52 48
180 158 200 212 217 272 80 224 266 278 272 291 316 298 216 207 210 211 207 206 204 198 198 196 195 190 192 195 195 201 205 199 204 193 183 153 170 169 166 159 147 149 145 135 116 105 92 68 55
174 222 220 240 253 298 144 235 259 272 307 304 295 275 212 200 205 208 206 204 202 200 195 197 192 192 192 197 199 199 204 206 215 204 206 194 172 180 163 151 145 148 153 137 118 109 96 98 86
146 191 41 117 108 255 273 262 276 299 290 280 331 241 199 198 205 212 207 207 207 202 196 199 188 189 197 191 193 189 199 193 197 203 204 158 153 156 179 147 138 141 138 137 131 115 110 95 80
251 137 159 148 224 246 214 274 264 330 344 342 308 320 25 251 235 229 208 211 209 206 207 200 191 186 194 182 180 188 197 195 184 187 184 164 162 152 158 151 134 140 135 133 132 126 109 101 93
146 167 70 115 310 263 256 258 272 296 323 336 359 9 345 283 253 237 218 213 215 210 202 202 186 184 182 172 174 177 192 185 182 174 131 169 170 152 148 151 140 138 141 137 131 117 119 119 115
56 148 191 230 181 271 324 278 71 351 323 346 18 33 10 299 280 221 210 214 208 207 197 195 182 182 180 166 164 166 161 187 186 173 170 165 166 169 159 158 155 145 131 135 147 146 132 133 124